Weather in Dongeradeel

Netherlands     53°23′01″N   6°03′21″E
temp.,
°C
wind,
m/s
gust,
m/s
humid.,
%
clouds,
%
prec.,
mm/h
press.,
hPa
HPBL,
m
26 june, sun
sun2623:00+17ene5791100 1.0 1012168
02:00+17se119499 3.1 101229
05:00+17ssw6990100 0.1 1012308
08:00+17sw6890100 0.1 1013423
11:00+17sw788387 0.0 1015612
14:00+17wsw577883 0.0 1016301
17:00+17wnw3375100 0.0 1016236
20:00+17nnw227683 0.0 1016220
27 june, mon
mon2723:00+17ene5681100 0.0 1017289
02:00+17ese6788100 0.1 1016217
05:00+16se5691100 0.3 1016251
08:00+16se4492100 0.7 1015206
11:00+16ssw1187100 0.6 1015105
14:00+17nw0179100 1.1 101670
17:00+18wsw347551 0.3 1017173
20:00+17wsw77781 0.4 1018445
28 june, tue
tue2823:00+16wsw567278 0.0 1020466
02:00+15ssw56781 0.0 1020268
05:00+15ssw56821 0.0 1020235
08:00+15ssw68810 0.0 1021335
11:00+17sw46720 0.0 1021484
14:00+17w45705 0.0 1020263
17:00+17nnw33695 0.0 1020168
20:00+17ne4473100 0.0 1019285
29 june, wed
wed2923:00+18e797922 0.0 1019193
02:00+17ese7118051 0.0 1017204
05:00+17se79785 0.0 1017169
08:00+17se69795 0.0 1016203
11:00+20sse4474100 0.0 101623
14:00+20nne1174100 0.0 101512
17:00+19nw568253 0.0 101585
20:00+19nnw55805 0.0 101570
30 june, thu
thu3023:00+18n568514 0.0 101566
02:00+19ese458991 0.0 101448
05:00+18ese68800 0.0 1013105
08:00+18ese56760 0.0 101387
11:00+19e667896 0.0 101364
14:00+20e688220 0.0 101269
17:00+20ene8118036 0.3 101190
20:00+21e915772 0.3 1009128